User: anonymous   Login
Location: Grand Lay
(47.3253°N, 0.9468°E)
Time: 11:26:34
(UTC+00:00)
Language:

Gblst 52 Del rocket - Orbit

View from above orbital plane
View from above orbital plane
View from above satellite
View from above satellite

Ground track
Ground track

The orbit is defined by the following mean orbital elements,

1 25774U          26071.87818650 +.00000000 +00000-0 +73068-4 0 00005
2 25774  51.5282 244.3085 0373972 254.5986 272.1264 13.46767796    06
Epoch (UTC): 12 March 2026 21:04:35
Eccentricity: 0.0373972
inclination: 51.5282°
perigee height: 805 km
apogee height: 1363 km
right ascension of ascending node: 244.3085°
argument of perigee: 254.5986°
revolutions per day: 13.46767796
mean anomaly at epoch: 272.1264°

The dashed part of the orbit path shows where the satellite is in the earth's shadow,  

DLR